Retour au catalogue

ONEWEB-0514

ActifCommunicationsPO
NORAD 54132·PAYLOAD·🇬🇧 United Kingdom

Lancé Oct 22, 2022 depuis Satish Dhawan Space Centre

Loading…

Prochains Passages (prochaines 24 heures)

TLE

FraisSource: CelesTrak SupGP

Époque: Sep 14, 2026, 17:17 UTC

1 54132C 22138V   26257.72032824 -.00001841  00000+0 -46048-2 0  2577
2 54132  87.9106 287.1341 0001947  98.4355 300.7015 13.19726582    10

Suivez ONEWEB-0514 en temps réel avec AllMySat

Download on the App Store